QPF
0.01 0.01 0.01 0.01 0.01 0.01 0.02 0.02 0.02 0.00 0.00 0.00 0.00 0.01 0.00 0.00 0.00 0.00 0.00 0.00 0.00 0.00 0.00 0.00 0.01 0.01 0.01 0.01 0.00 0.01 0.02 0.03 0.04 0.04 0.04 0.04 0.04 0.03 0.02 0.02 0.02 0.03 0.04 0.05
0.01 0.01 0.01 0.01 0.01 0.01 0.01 0.01 0.00 0.00 0.00 0.00 0.00 0.01 0.01 0.01 0.00 0.00 0.00 0.01 0.00 0.00 0.00 0.01 0.01 0.01 0.01 0.01 0.01 0.01 0.01 0.03 0.04 0.04 0.04 0.04 0.03 0.03 0.02 0.02 0.02 0.03 0.04 0.05
0.02 0.01 0.02 0.02 0.01 0.01 0.01 0.01 0.00 0.00 0.00 0.00 0.00 0.00 0.01 0.01 0.01 0.01 0.00 0.00 0.01 0.01 0.01 0.01 0.01 0.01 0.02 0.01 0.01 0.01 0.01 0.01 0.02 0.04 0.05 0.04 0.04 0.03 0.03 0.02 0.02 0.03 0.04 0.05
0.03 0.02 0.03 0.01 0.01 0.00 0.00 0.01 0.01 0.01 0.01 0.01 0.01 0.01 0.01 0.01 0.01 0.01 0.01 0.01 0.01 0.01 0.01 0.01 0.01 0.02 0.02 0.02 0.01 0.01 0.01 0.01 0.01 0.02 0.04 0.04 0.04 0.03 0.03 0.02 0.02 0.03 0.04 0.05
0.05 0.03 0.01 0.01 0.00 0.00 0.00 0.00 0.01 0.00 0.01 0.01 0.01 0.01 0.01 0.02 0.02 0.02 0.02 0.02 0.02 0.02 0.02 0.02 0.01 0.01 0.01 0.01 0.02 0.02 0.02 0.02 0.02 0.02 0.02 0.03 0.04 0.04 0.03 0.03 0.03 0.03 0.03 0.04
0.06 0.04 0.01 0.00 0.00 0.00 0.00 0.01 0.00 0.00 0.00 0.00 0.01 0.01 0.01 0.01 0.02 0.02 0.03 0.03 0.03 0.02 0.02 0.02 0.01 0.01 0.01 0.01 0.01 0.02 0.02 0.02 0.02 0.02 0.02 0.03 0.03 0.04 0.04 0.03 0.03 0.04 0.04 0.03
0.05 0.04 0.01 0.00 0.00 0.00 0.01 0.01 0.01 0.01 0.01 0.01 0.01 0.01 0.01 0.01 0.01 0.02 0.02 0.03 0.03 0.03 0.02 0.02 0.01 0.02 0.02 0.01 0.01 0.02 0.02 0.02 0.02 0.03 0.03 0.03 0.04 0.04 0.04 0.04 0.04 0.04 0.04 0.04
0.03 0.05 0.02 0.00 0.00 0.01 0.01 0.01 0.01 0.01 0.01 0.01 0.01 0.01 0.01 0.01 0.01 0.01 0.01 0.02 0.03 0.03 0.03 0.02 0.02 0.02 0.02 0.02 0.01 0.01 0.02 0.03 0.03 0.03 0.04 0.04 0.04 0.05 0.05 0.05 0.06 0.06 0.06 0.06
0.02 0.01 0.01 0.00 0.00 0.01 0.00 0.00 0.01 0.01 0.01 0.01 0.01 0.01 0.01 0.01 0.01 0.01 0.01 0.01 0.01 0.02 0.03 0.03 0.03 0.03 0.03 0.03 0.02 0.02 0.02 0.03 0.04 0.04 0.05 0.05 0.06 0.06 0.06 0.06 0.06 0.06 0.07 0.06
0.01 0.01 0.01 0.01 0.01 0.01 0.01 0.01 0.01 0.01 0.01 0.01 0.01 0.01 0.01 0.01 0.01 0.01 0.01 0.01 0.01 0.01 0.01 0.02 0.03 0.04 0.05 0.05 0.03 0.03 0.03 0.03 0.04 0.05 0.06 0.07 0.07 0.07 0.07 0.06 0.06 0.06 0.06 0.06
0.01 0.01 0.01 0.01 0.01 0.01 0.01 0.01 0.01 0.01 0.01 0.01 0.01 0.01 0.01 0.01 0.01 0.01 0.01 0.01 0.01 0.01 0.01 0.01 0.01 0.02 0.03 0.04 0.04 0.04 0.04 0.04 0.04 0.05 0.06 0.06 0.07 0.08 0.08 0.07 0.07 0.06 0.06 0.06
0.01 0.01 0.02 0.02 0.01 0.01 0.01 0.01 0.01 0.01 0.01 0.01 0.01 0.01 0.01 0.01 0.01 0.01 0.01 0.01 0.01 0.01 0.01 0.01 0.01 0.01 0.01 0.02 0.03 0.04 0.04 0.05 0.05 0.06 0.06 0.06 0.06 0.06 0.07 0.07 0.06 0.06 0.05 0.06
0.02 0.02 0.02 0.03 0.02 0.01 0.01 0.01 0.01 0.01 0.01 0.01 0.01 0.01 0.01 0.01 0.01 0.01 0.01 0.01 0.01 0.01 0.01 0.01 0.01 0.01 0.01 0.01 0.02 0.02 0.03 0.04 0.04 0.05 0.05 0.05 0.05 0.05 0.05 0.06 0.05 0.05 0.05 0.05
0.02 0.03 0.03 0.02 0.02 0.01 0.01 0.01 0.01 0.01 0.00 0.00 0.00 0.00 0.01 0.01 0.00 0.00 0.00 0.00 0.00 0.01 0.01 0.01 0.01 0.01 0.01 0.02 0.02 0.02 0.02 0.03 0.04 0.04 0.05 0.05 0.05 0.05 0.05 0.05 0.04 0.04 0.04 0.04
0.02 0.03 0.03 0.02 0.02 0.01 0.01 0.01 0.00 0.00 0.00 0.00 0.00 0.00 0.00 0.00 0.00 0.00 0.00 0.00 0.00 0.00 0.00 0.00 0.01 0.01 0.01 0.01 0.01 0.02 0.02 0.03 0.03 0.04 0.04 0.05 0.05 0.05 0.04 0.04 0.04 0.04 0.04 0.04
0.02 0.03 0.02 0.02 0.01 0.01 0.01 0.00 0.00 0.00 0.00 0.00 0.00 0.00 0.00 0.00 0.00 0.00 0.00 0.00 0.00 0.00 0.00 0.00 0.01 0.01 0.01 0.01 0.01 0.01 0.02 0.03 0.03 0.03 0.03 0.04 0.04 0.04 0.04 0.03 0.03 0.03 0.03 0.03
0.02 0.02 0.02 0.01 0.01 0.01 0.01 0.00 0.00 0.00 0.00 0.00 0.00 0.00 0.00 0.00 0.00 0.00 0.00 0.00 0.00 0.00 0.00 0.01 0.01 0.01 0.01 0.01 0.01 0.01 0.02 0.02 0.02 0.02 0.02 0.03 0.03 0.03 0.03 0.03 0.03 0.02 0.02 0.03
0.01 0.01 0.01 0.01 0.01 0.01 0.01 0.01 0.00 0.00 0.00 0.00 0.00 0.00 0.00 0.00 0.00 0.00 0.00 0.00 0.00 0.00 0.00 0.01 0.01 0.01 0.01 0.01 0.02 0.02 0.02 0.02 0.02 0.02 0.02 0.02 0.02 0.02 0.02 0.02 0.02 0.02 0.02 0.02
0.01 0.01 0.01 0.01 0.01 0.01 0.01 0.01 0.00 0.00 0.00 0.00 0.00 0.00 0.00 0.00 0.00 0.00 0.00 0.00 0.00 0.00 0.00 0.00 0.01 0.01 0.01 0.01 0.02 0.02 0.02 0.02 0.02 0.02 0.02 0.02 0.02 0.02 0.02 0.02 0.02 0.02 0.02 0.02
0.01 0.01 0.01 0.01 0.01 0.00 0.01 0.00 0.00 0.00 0.00 0.00 0.00 0.00 0.00 0.00 0.00 0.00 0.00 0.00 0.00 0.00 0.00 0.01 0.01 0.01 0.01 0.01 0.01 0.01 0.02 0.02 0.02 0.02 0.01 0.01 0.01 0.02 0.02 0.02 0.02 0.02 0.02 0.02
0.01 0.01 0.01 0.01 0.00 0.00 0.00 0.00 0.00 0.00 0.00 0.00 0.00 0.00 0.00 0.00 0.00 0.00 0.00 0.00 0.00 0.00 0.01 0.01 0.01 0.01 0.01 0.01 0.01 0.01 0.01 0.01 0.01 0.01 0.01 0.01 0.01 0.01 0.02 0.02 0.02 0.02 0.02 0.02
0.00 0.01 0.01 0.00 0.00 0.00 0.00 0.00 0.00 0.00 0.00 0.00 0.00 0.00 0.00 0.00 0.00 0.00 0.00 0.00 0.00 0.01 0.01 0.01 0.01 0.01 0.02 0.02 0.01 0.01 0.01 0.01 0.01 0.01 0.01 0.01 0.01 0.01 0.01 0.02 0.02 0.02 0.02 0.03
0.00 0.01 0.00 0.00 0.00 0.00 0.00 0.00 0.00 0.00 0.00 0.00 0.00 0.00 0.00 0.00 0.00 0.00 0.00 0.00 0.00 0.01 0.01 0.01 0.01 0.02 0.02 0.02 0.01 0.01 0.01 0.01 0.01 0.01 0.01 0.01 0.01 0.01 0.01 0.01 0.02 0.02 0.02 0.02
0.00 0.01 0.00 0.00 0.00 0.00 0.00 0.00 0.00 0.00 0.00 0.00 0.00 0.00 0.00 0.00 0.00 0.00 0.00 0.00 0.01 0.01 0.01 0.01 0.01 0.01 0.01 0.01 0.01 0.01 0.01 0.01 0.01 0.01 0.01 0.01 0.01 0.01 0.01 0.01 0.01 0.02 0.02 0.02
0.00 0.00 0.00 0.00 0.00 0.00 0.00 0.00 0.00 0.00 0.00 0.00 0.00 0.00 0.00 0.00 0.00 0.00 0.00 0.00 0.01 0.01 0.01 0.01 0.01 0.01 0.01 0.01 0.01 0.01 0.01 0.01 0.01 0.01 0.01 0.01 0.01 0.01 0.01 0.01 0.01 0.01 0.01 0.02
0.00 0.00 0.00 0.00 0.00 0.00 0.00 0.00 0.00 0.00 0.00 0.00 0.00 0.00 0.00 0.00 0.00 0.00 0.00 0.00 0.01 0.01 0.01 0.01 0.01 0.01 0.01 0.01 0.01 0.01 0.01 0.00 0.01 0.01 0.01 0.01 0.01 0.01 0.01 0.01 0.01 0.01 0.01 0.01
0.01 0.00 0.00 0.00 0.00 0.00 0.00 0.00 0.00 0.00 0.00 0.00 0.00 0.00 0.00 0.00 0.00 0.00 0.00 0.00 0.00 0.00 0.00 0.00 0.01 0.01 0.01 0.01 0.00 0.00 0.00 0.00 0.00 0.00 0.00 0.01 0.01 0.01 0.01 0.01 0.01 0.01 0.01 0.01
MSLP
1028.97 1029.72 1030.30 1030.65 1030.75 1030.60 1030.28 1029.86 1029.43 1029.08 1028.85 1028.77 1028.80 1028.89 1028.96 1028.94 1028.76 1028.38 1027.81 1027.06 1026.19 1025.26 1024.31 1023.36 1022.43 1021.48 1020.48 1019.37 1018.12 1016.73 1015.21 1013.62 1012.05 1010.61 1009.38 1008.48 1007.96 1007.83 1008.10 1008.71 1009.61 1010.71 1011.94 1013.22
1028.88 1029.52 1030.06 1030.42 1030.60 1030.60 1030.45 1030.23 1029.99 1029.80 1029.69 1029.67 1029.73 1029.81 1029.85 1029.77 1029.54 1029.12 1028.52 1027.74 1026.86 1025.90 1024.92 1023.95 1022.98 1022.00 1020.97 1019.86 1018.62 1017.26 1015.79 1014.25 1012.72 1011.28 1010.04 1009.07 1008.45 1008.19 1008.30 1008.75 1009.50 1010.46 1011.58 1012.78
1028.72 1029.21 1029.64 1029.98 1030.19 1030.28 1030.28 1030.24 1030.19 1030.18 1030.22 1030.32 1030.45 1030.57 1030.62 1030.54 1030.29 1029.85 1029.23 1028.44 1027.54 1026.56 1025.55 1024.54 1023.53 1022.52 1021.46 1020.33 1019.11 1017.77 1016.34 1014.84 1013.34 1011.92 1010.66 1009.65 1008.93 1008.55 1008.52 1008.82 1009.41 1010.24 1011.25 1012.35
1028.57 1028.90 1029.20 1029.47 1029.68 1029.83 1029.95 1030.06 1030.19 1030.36 1030.56 1030.80 1031.03 1031.22 1031.30 1031.24 1031.00 1030.55 1029.92 1029.12 1028.19 1027.19 1026.15 1025.10 1024.04 1022.98 1021.89 1020.75 1019.52 1018.20 1016.80 1015.34 1013.88 1012.48 1011.21 1010.16 1009.36 1008.88 1008.72 1008.87 1009.32 1010.01 1010.89 1011.90
1028.48 1028.67 1028.87 1029.07 1029.26 1029.46 1029.67 1029.91 1030.19 1030.52 1030.87 1031.24 1031.57 1031.82 1031.95 1031.91 1031.67 1031.22 1030.57 1029.75 1028.80 1027.76 1026.68 1025.57 1024.47 1023.36 1022.23 1021.07 1019.84 1018.53 1017.16 1015.74 1014.31 1012.93 1011.67 1010.58 1009.73 1009.15 1008.87 1008.89 1009.19 1009.74 1010.49 1011.39
1028.50 1028.61 1028.74 1028.90 1029.09 1029.32 1029.61 1029.95 1030.35 1030.80 1031.27 1031.73 1032.13 1032.43 1032.58 1032.54 1032.30 1031.83 1031.16 1030.31 1029.32 1028.24 1027.11 1025.96 1024.80 1023.65 1022.48 1021.29 1020.06 1018.77 1017.43 1016.05 1014.66 1013.30 1012.04 1010.93 1010.03 1009.36 1008.97 1008.86 1009.02 1009.43 1010.05 1010.84
1028.65 1028.75 1028.87 1029.03 1029.24 1029.52 1029.86 1030.28 1030.76 1031.28 1031.82 1032.33 1032.76 1033.06 1033.21 1033.15 1032.87 1032.38 1031.67 1030.79 1029.76 1028.64 1027.47 1026.27 1025.07 1023.87 1022.68 1021.47 1020.23 1018.96 1017.65 1016.31 1014.96 1013.64 1012.39 1011.27 1010.32 1009.58 1009.09 1008.84 1008.86 1009.12 1009.60 1010.26
1028.97 1029.12 1029.29 1029.49 1029.74 1030.06 1030.45 1030.91 1031.43 1031.98 1032.52 1033.03 1033.44 1033.71 1033.81 1033.71 1033.39 1032.85 1032.11 1031.19 1030.13 1028.98 1027.78 1026.54 1025.31 1024.09 1022.87 1021.66 1020.43 1019.18 1017.90 1016.61 1015.30 1014.02 1012.79 1011.66 1010.68 1009.87 1009.27 1008.90 1008.76 1008.86 1009.18 1009.69
1029.46 1029.71 1029.96 1030.23 1030.54 1030.90 1031.32 1031.79 1032.30 1032.82 1033.33 1033.78 1034.13 1034.34 1034.38 1034.21 1033.84 1033.25 1032.48 1031.54 1030.47 1029.30 1028.09 1026.84 1025.60 1024.36 1023.14 1021.93 1020.72 1019.50 1018.26 1017.01 1015.76 1014.52 1013.31 1012.18 1011.16 1010.29 1009.58 1009.08 1008.79 1008.72 1008.86 1009.20
1030.12 1030.49 1030.84 1031.18 1031.54 1031.93 1032.35 1032.80 1033.26 1033.73 1034.16 1034.52 1034.78 1034.90 1034.85 1034.62 1034.20 1033.58 1032.80 1031.85 1030.79 1029.64 1028.44 1027.20 1025.97 1024.74 1023.53 1022.33 1021.14 1019.96 1018.76 1017.57 1016.36 1015.17 1013.99 1012.87 1011.82 1010.89 1010.09 1009.45 1009.00 1008.74 1008.69 1008.83
1030.92 1031.40 1031.83 1032.24 1032.63 1033.01 1033.41 1033.80 1034.19 1034.56 1034.89 1035.15 1035.30 1035.33 1035.20 1034.92 1034.46 1033.84 1033.06 1032.14 1031.11 1030.00 1028.83 1027.63 1026.42 1025.22 1024.03 1022.86 1021.70 1020.55 1019.41 1018.26 1017.11 1015.97 1014.83 1013.73 1012.66 1011.68 1010.79 1010.02 1009.41 1008.97 1008.71 1008.64
1031.83 1032.38 1032.86 1033.29 1033.67 1034.03 1034.36 1034.68 1034.97 1035.23 1035.44 1035.59 1035.64 1035.58 1035.40 1035.07 1034.61 1034.00 1033.25 1032.38 1031.41 1030.35 1029.24 1028.09 1026.92 1025.75 1024.60 1023.46 1022.34 1021.23 1020.13 1019.05 1017.96 1016.87 1015.78 1014.70 1013.65 1012.63 1011.67 1010.79 1010.03 1009.41 1008.95 1008.66
1032.78 1033.34 1033.83 1034.24 1034.58 1034.87 1035.13 1035.34 1035.52 1035.67 1035.77 1035.81 1035.78 1035.65 1035.42 1035.08 1034.62 1034.04 1033.34 1032.54 1031.63 1030.64 1029.59 1028.50 1027.38 1026.26 1025.14 1024.04 1022.96 1021.90 1020.86 1019.83 1018.81 1017.79 1016.76 1015.73 1014.69 1013.66 1012.66 1011.71 1010.83 1010.05 1009.40 1008.91
1033.69 1034.23 1034.67 1035.02 1035.30 1035.50 1035.65 1035.76 1035.83 1035.86 1035.86 1035.81 1035.71 1035.54 1035.28 1034.94 1034.50 1033.96 1033.31 1032.56 1031.73 1030.81 1029.82 1028.79 1027.73 1026.65 1025.58 1024.52 1023.49 1022.48 1021.51 1020.55 1019.60 1018.66 1017.70 1016.73 1015.73 1014.72 1013.71 1012.71 1011.75 1010.85 1010.05 1009.39
1034.48 1034.96 1035.33 1035.60 1035.78 1035.88 1035.93 1035.93 1035.90 1035.84 1035.75 1035.63 1035.47 1035.27 1035.00 1034.66 1034.24 1033.73 1033.13 1032.44 1031.66 1030.80 1029.87 1028.90 1027.89 1026.87 1025.85 1024.84 1023.87 1022.93 1022.02 1021.14 1020.27 1019.41 1018.54 1017.65 1016.72 1015.75 1014.76 1013.76 1012.75 1011.79 1010.89 1010.08
1035.09 1035.50 1035.79 1035.96 1036.04 1036.05 1035.99 1035.90 1035.78 1035.64 1035.49 1035.31 1035.11 1034.88 1034.60 1034.26 1033.85 1033.36 1032.80 1032.14 1031.41 1030.61 1029.73 1028.82 1027.87 1026.90 1025.94 1025.00 1024.10 1023.23 1022.40 1021.60 1020.82 1020.05 1019.28 1018.47 1017.62 1016.73 1015.79 1014.81 1013.82 1012.82 1011.87 1010.98
1035.48 1035.81 1036.02 1036.12 1036.11 1036.03 1035.89 1035.72 1035.53 1035.33 1035.13 1034.91 1034.68 1034.42 1034.12 1033.78 1033.37 1032.89 1032.34 1031.72 1031.02 1030.25 1029.43 1028.57 1027.69 1026.79 1025.91 1025.05 1024.22 1023.44 1022.69 1021.98 1021.30 1020.62 1019.93 1019.22 1018.46 1017.65 1016.78 1015.86 1014.91 1013.94 1012.98 1012.06
1035.63 1035.91 1036.06 1036.08 1036.01 1035.86 1035.66 1035.44 1035.20 1034.96 1034.72 1034.47 1034.21 1033.93 1033.61 1033.25 1032.83 1032.35 1031.80 1031.19 1030.52 1029.80 1029.03 1028.24 1027.43 1026.62 1025.82 1025.06 1024.33 1023.63 1022.98 1022.36 1021.76 1021.17 1020.57 1019.93 1019.26 1018.53 1017.74 1016.91 1016.02 1015.11 1014.19 1013.29
1035.56 1035.80 1035.90 1035.89 1035.77 1035.58 1035.34 1035.08 1034.82 1034.55 1034.28 1034.01 1033.73 1033.43 1033.09 1032.70 1032.27 1031.78 1031.24 1030.65 1030.00 1029.32 1028.62 1027.90 1027.18 1026.47 1025.78 1025.12 1024.49 1023.90 1023.34 1022.80 1022.27 1021.75 1021.22 1020.66 1020.05 1019.40 1018.70 1017.94 1017.14 1016.30 1015.45 1014.60
1035.30 1035.52 1035.59 1035.55 1035.40 1035.19 1034.93 1034.66 1034.38 1034.10 1033.82 1033.54 1033.24 1032.92 1032.56 1032.16 1031.72 1031.23 1030.69 1030.12 1029.51 1028.89 1028.26 1027.63 1027.01 1026.41 1025.83 1025.28 1024.76 1024.26 1023.79 1023.32 1022.87 1022.40 1021.92 1021.41 1020.86 1020.27 1019.63 1018.95 1018.23 1017.48 1016.71 1015.94
1034.88 1035.09 1035.14 1035.08 1034.92 1034.69 1034.43 1034.16 1033.88 1033.60 1033.32 1033.03 1032.73 1032.40 1032.03 1031.63 1031.18 1030.70 1030.18 1029.64 1029.09 1028.54 1027.99 1027.45 1026.94 1026.46 1025.99 1025.55 1025.13 1024.73 1024.32 1023.92 1023.51 1023.09 1022.64 1022.16 1021.65 1021.10 1020.52 1019.91 1019.27 1018.60 1017.92 1017.23
1034.34 1034.53 1034.57 1034.49 1034.32 1034.09 1033.83 1033.56 1033.28 1033.01 1032.74 1032.46 1032.17 1031.84 1031.49 1031.09 1030.66 1030.20 1029.72 1029.22 1028.73 1028.25 1027.79 1027.35 1026.95 1026.57 1026.21 1025.87 1025.54 1025.21 1024.87 1024.52 1024.15 1023.75 1023.32 1022.87 1022.38 1021.87 1021.33 1020.77 1020.19 1019.60 1019.00 1018.39
1033.71 1033.86 1033.87 1033.77 1033.59 1033.36 1033.10 1032.84 1032.58 1032.33 1032.08 1031.82 1031.54 1031.24 1030.91 1030.54 1030.14 1029.71 1029.27 1028.83 1028.40 1028.00 1027.62 1027.27 1026.96 1026.68 1026.41 1026.15 1025.90 1025.63 1025.34 1025.03 1024.68 1024.30 1023.90 1023.46 1023.00 1022.52 1022.02 1021.50 1020.98 1020.45 1019.91 1019.37
1032.98 1033.08 1033.06 1032.93 1032.73 1032.50 1032.25 1032.01 1031.77 1031.55 1031.33 1031.10 1030.86 1030.59 1030.29 1029.95 1029.59 1029.21 1028.82 1028.43 1028.06 1027.72 1027.42 1027.14 1026.90 1026.69 1026.49 1026.30 1026.10 1025.88 1025.63 1025.35 1025.03 1024.68 1024.30 1023.88 1023.44 1022.99 1022.53 1022.06 1021.58 1021.10 1020.62 1020.13
1032.17 1032.21 1032.14 1031.98 1031.77 1031.54 1031.30 1031.08 1030.87 1030.68 1030.50 1030.31 1030.11 1029.88 1029.62 1029.33 1029.01 1028.67 1028.33 1027.99 1027.67 1027.38 1027.12 1026.90 1026.71 1026.54 1026.39 1026.24 1026.08 1025.90 1025.68 1025.43 1025.15 1024.83 1024.47 1024.09 1023.69 1023.27 1022.85 1022.42 1021.99 1021.55 1021.11 1020.66
1031.28 1031.25 1031.13 1030.95 1030.73 1030.50 1030.28 1030.08 1029.91 1029.76 1029.62 1029.47 1029.31 1029.12 1028.90 1028.65 1028.37 1028.07 1027.77 1027.46 1027.18 1026.92 1026.69 1026.50 1026.34 1026.20 1026.07 1025.95 1025.81 1025.66 1025.48 1025.26 1025.01 1024.73 1024.41 1024.08 1023.72 1023.35 1022.97 1022.58 1022.18 1021.78 1021.37 1020.94
1030.32 1030.23 1030.07 1029.86 1029.64 1029.43 1029.23 1029.07 1028.94 1028.82 1028.72 1028.61 1028.49 1028.33 1028.15 1027.93 1027.67 1027.40 1027.12 1026.84 1026.57 1026.33 1026.12 1025.94 1025.79 1025.67 1025.55 1025.45 1025.33 1025.20 1025.05 1024.86 1024.65 1024.41 1024.14 1023.86 1023.55 1023.22 1022.89 1022.54 1022.18 1021.80 1021.41 1021.00
Thickness
5439 5446 5444 5441 5440 5439 5435 5436 5437 5452 5456 5459 5453 5446 5440 5436 5432 5429 5426 5423 5420 5417 5414 5412 5411 5410 5410 5410 5412 5413 5415 5417 5418 5420 5422 5423 5423 5423 5423 5423 5424 5423 5422 5422
5423 5434 5433 5430 5435 5433 5431 5431 5432 5437 5441 5446 5438 5432 5427 5421 5418 5415 5412 5409 5406 5403 5400 5398 5396 5395 5395 5395 5397 5398 5399 5401 5402 5404 5406 5408 5409 5409 5409 5409 5409 5409 5408 5408
5415 5422 5417 5416 5429 5429 5426 5426 5425 5425 5432 5429 5422 5417 5412 5408 5405 5401 5398 5394 5391 5388 5385 5383 5381 5381 5380 5381 5382 5384 5384 5386 5387 5389 5391 5392 5394 5394 5394 5394 5394 5395 5395 5395
5399 5399 5398 5430 5430 5427 5423 5421 5417 5417 5418 5413 5409 5402 5398 5394 5390 5387 5384 5380 5376 5373 5371 5368 5367 5366 5366 5367 5368 5369 5370 5371 5372 5373 5375 5377 5378 5379 5379 5379 5380 5381 5381 5382
5389 5388 5401 5423 5416 5411 5407 5409 5409 5406 5405 5400 5393 5391 5387 5380 5377 5374 5370 5366 5362 5359 5356 5354 5353 5353 5353 5354 5354 5354 5355 5356 5357 5359 5360 5361 5363 5364 5365 5365 5366 5366 5367 5368
5381 5380 5391 5415 5401 5400 5399 5392 5398 5395 5391 5385 5380 5378 5376 5367 5363 5359 5356 5351 5348 5345 5342 5340 5339 5339 5339 5340 5340 5340 5341 5342 5344 5345 5346 5347 5348 5350 5351 5351 5352 5352 5353 5353
5371 5372 5384 5393 5386 5387 5383 5388 5381 5378 5375 5370 5366 5362 5355 5351 5347 5343 5340 5337 5333 5330 5328 5326 5325 5325 5324 5324 5324 5325 5327 5329 5330 5331 5332 5334 5334 5335 5336 5338 5338 5338 5337 5338
5364 5366 5378 5374 5372 5374 5374 5368 5366 5363 5360 5356 5351 5345 5340 5336 5332 5329 5325 5322 5319 5316 5313 5312 5311 5311 5310 5309 5310 5312 5313 5315 5317 5318 5319 5320 5320 5321 5322 5323 5324 5323 5322 5322
5364 5371 5371 5363 5362 5358 5355 5352 5351 5347 5343 5341 5337 5332 5327 5322 5318 5314 5311 5307 5304 5301 5299 5297 5296 5296 5295 5295 5296 5298 5300 5301 5303 5304 5305 5306 5306 5307 5307 5308 5308 5309 5308 5308
5353 5358 5357 5351 5347 5343 5340 5337 5335 5333 5330 5327 5323 5318 5313 5309 5304 5300 5296 5293 5290 5287 5285 5283 5281 5281 5280 5281 5282 5283 5285 5286 5288 5290 5291 5291 5292 5293 5293 5293 5293 5294 5293 5292
5341 5344 5342 5340 5334 5331 5326 5323 5321 5319 5316 5313 5309 5304 5299 5294 5290 5286 5283 5279 5276 5273 5271 5269 5268 5266 5266 5266 5267 5268 5270 5271 5273 5275 5275 5276 5277 5277 5277 5277 5278 5278 5278 5277
5337 5333 5328 5327 5322 5319 5314 5311 5308 5304 5301 5298 5295 5289 5285 5280 5276 5271 5268 5265 5262 5259 5257 5254 5253 5252 5252 5252 5253 5254 5256 5257 5258 5259 5260 5261 5262 5262 5262 5262 5264 5264 5263 5263
5320 5316 5312 5309 5305 5303 5300 5297 5294 5290 5286 5282 5278 5274 5270 5266 5262 5258 5254 5251 5248 5246 5243 5240 5239 5238 5238 5239 5240 5240 5241 5242 5243 5244 5245 5245 5246 5246 5247 5247 5247 5248 5248 5249
5305 5301 5298 5295 5290 5287 5284 5281 5277 5273 5270 5266 5263 5260 5256 5252 5248 5244 5240 5238 5235 5232 5230 5227 5226 5225 5225 5226 5226 5227 5227 5229 5229 5230 5230 5230 5230 5230 5230 5230 5231 5231 5232 5233
5289 5287 5284 5278 5274 5271 5268 5265 5262 5258 5255 5252 5249 5246 5243 5239 5235 5231 5228 5225 5223 5220 5217 5215 5213 5212 5213 5213 5213 5214 5215 5215 5215 5215 5215 5215 5215 5215 5214 5214 5215 5215 5216 5217
5275 5271 5267 5264 5260 5257 5254 5252 5249 5246 5243 5240 5236 5233 5230 5226 5221 5218 5215 5213 5210 5208 5206 5203 5202 5201 5201 5201 5201 5201 5201 5203 5203 5202 5202 5201 5200 5200 5200 5200 5200 5200 5201 5201
5263 5260 5256 5253 5249 5246 5243 5240 5237 5234 5231 5227 5224 5220 5217 5213 5209 5205 5202 5200 5198 5196 5194 5193 5191 5191 5190 5189 5188 5188 5188 5189 5190 5189 5188 5188 5187 5187 5187 5187 5186 5186 5187 5187
5253 5250 5247 5243 5240 5235 5232 5229 5225 5222 5219 5216 5212 5208 5204 5200 5196 5193 5190 5188 5186 5185 5184 5182 5181 5181 5180 5178 5177 5177 5177 5176 5176 5176 5175 5175 5175 5175 5175 5174 5174 5174 5174 5174
5241 5238 5235 5232 5228 5224 5220 5217 5214 5211 5208 5204 5200 5195 5191 5188 5185 5181 5179 5177 5175 5174 5173 5172 5173 5171 5169 5168 5168 5167 5166 5165 5165 5164 5164 5165 5164 5163 5163 5163 5162 5162 5162 5162
5231 5228 5224 5220 5217 5213 5210 5207 5203 5199 5196 5192 5189 5185 5181 5177 5174 5171 5168 5166 5166 5165 5163 5162 5162 5161 5159 5158 5158 5156 5155 5155 5154 5153 5153 5152 5152 5151 5151 5152 5151 5151 5151 5151
5220 5217 5214 5210 5206 5203 5200 5196 5193 5189 5186 5182 5178 5175 5171 5168 5165 5162 5159 5159 5158 5157 5155 5155 5153 5151 5150 5149 5149 5147 5146 5145 5144 5143 5142 5141 5141 5140 5140 5140 5140 5140 5140 5140
5209 5206 5203 5200 5196 5193 5190 5187 5183 5180 5177 5173 5170 5166 5163 5159 5157 5154 5152 5151 5150 5150 5148 5146 5144 5144 5143 5142 5140 5138 5137 5135 5134 5133 5131 5130 5130 5130 5129 5129 5129 5130 5130 5129
5201 5197 5194 5190 5187 5183 5180 5177 5174 5171 5168 5165 5162 5159 5155 5152 5150 5147 5145 5144 5142 5142 5140 5138 5137 5137 5137 5134 5131 5129 5127 5126 5124 5123 5122 5121 5121 5120 5120 5120 5120 5120 5119 5120
5192 5188 5185 5181 5178 5175 5172 5170 5167 5164 5161 5158 5155 5151 5148 5145 5142 5140 5138 5137 5136 5135 5133 5131 5131 5130 5128 5125 5122 5120 5119 5117 5116 5115 5114 5114 5113 5113 5112 5112 5111 5111 5111 5111
5183 5179 5176 5173 5170 5168 5166 5162 5159 5156 5153 5150 5148 5145 5141 5138 5135 5133 5130 5128 5128 5127 5125 5123 5123 5122 5118 5116 5114 5112 5111 5110 5109 5108 5107 5107 5106 5105 5105 5104 5104 5104 5104 5104
5175 5172 5169 5165 5162 5160 5157 5154 5151 5148 5145 5142 5140 5137 5134 5131 5129 5126 5123 5121 5119 5119 5117 5115 5113 5112 5110 5108 5106 5105 5104 5103 5101 5100 5100 5099 5099 5098 5098 5098 5098 5098 5098 5099
5166 5163 5159 5156 5154 5151 5148 5145 5142 5140 5137 5134 5132 5130 5127 5125 5122 5119 5117 5114 5112 5110 5109 5107 5105 5104 5102 5101 5100 5099 5098 5096 5095 5095 5094 5093 5093 5092 5092 5092 5092 5093 5093 5094